Location: Advent Pentecost Church
(32.7757°N, 96.7408°W)
Time: 13:24:45
(UTC+00:00)

Hubble Space Telescope - Visible Passes

Search period start: 23 October 2021 00:00
Search period end: 02 November 2021 00:00
Orbit: 535 x 538 km, 28.5° (Epoch: 22 October)

Date Brightness Start Highest point End Pass type
(mag) Time Alt. Az. Time Alt. Az. Time Alt. Az.
26 Oct 3.3 01:37:14 10° SSW 01:37:47 12° S 01:37:47 12° S visible
27 Oct 2.8 01:25:37 10° SSW 01:27:30 17° S 01:27:30 17° S visible
28 Oct 2.4 01:14:07 10° SSW 01:17:10 22° SSE 01:17:10 22° SSE visible
29 Oct 2.1 01:02:44 10° SW 01:06:10 26° SSE 01:06:47 25° SSE visible
30 Oct 2.0 00:51:25 10° SW 00:55:01 30° SSE 00:56:22 24° SE visible
31 Oct 1.8 00:40:09 10° SW 00:43:52 34° SSE 00:45:55 21° ESE visible
31 Oct 3.8 02:20:49 10° WSW 02:21:13 12° WSW 02:21:13 12° WSW visible
01 Nov 1.7 00:28:55 10° WSW 00:32:44 37° S 00:35:27 17° ESE visible
01 Nov 3.5 02:09:42 10° WSW 02:10:45 17° WSW 02:10:45 17° WSW visible
